N2DJ Weather Reports


Display with metric or nautical units.
time (UTC)temp
F
wind
direction
speed
MPH
gust
MPH
rain 1hr
in
rain 24hr
in
rain mn
in
humidity
%
barometer
mb
20260506154555 47 92 0.0 2.0 0.00 1.41 0.50 95 1010.1
20260506153053 47 92 1.0 6.0 0.00 1.41 0.50 95 1010.4
20260506151552 47 71 2.0 5.0 0.01 1.41 0.50 96 1010.1
20260506150054 46 68 2.0 5.0 0.02 1.41 0.50 96 1010.1
20260506144558 46 61 2.0 4.0 0.02 1.41 0.50 96 1010.0
20260506143046 46 79 1.0 4.0 0.03 1.41 0.50 96 1009.9
20260506141547 45 57 1.0 4.0 0.02 1.40 0.49 96 1010.0
20260506140044 45 84 2.0 4.0 0.01 1.39 0.48 96 1009.9
20260506134540 45 50 1.0 4.0 0.01 1.39 0.48 97 1009.7
20260506133041 44 92 2.0 6.0 0.01 1.38 0.47 96 1009.6
20260506131551 44 116 1.0 6.0 0.01 1.38 0.47 97 1009.3
20260506130035 44 123 2.0 4.0 0.02 1.38 0.47 97 1009.1
20260506124536 44 116 0.0 3.0 0.02 1.38 0.47 97 1009.2
20260506123035 44 95 2.0 7.0 0.02 1.37 0.46 97 1009.1
20260506121532 44 114 3.0 7.0 0.03 1.37 0.46 97 1008.9
20260506120030 44 103 4.0 8.0 0.03 1.36 0.45 97 1008.8
20260506114535 44 108 3.0 7.0 0.03 1.36 0.45 97 1008.5
20260506113025 44 90 2.0 8.0 0.02 1.35 0.44 97 1008.6
20260506111522 44 98 4.0 11.0 0.02 1.34 0.43 97 1008.7
20260506110021 45 90 3.0 7.0 0.02 1.33 0.42 97 1008.8
20260506104519 45 93 3.0 7.0 0.03 1.33 0.42 97 1008.7
20260506103016 45 84 3.0 8.0 0.05 1.33 0.42 97 1008.6
20260506101518 45 98 3.0 8.0 0.05 1.32 0.41 97 1008.2
20260506100022 44 102 0.0 4.0 0.06 1.31 0.40 97 1008.8
20260506094514 44 86 1.0 4.0 0.06 1.30 0.39 97 1008.8
20260506093013 44 86 2.0 6.0 0.06 1.28 0.37 97 1008.8
20260506091509 45 68 3.0 9.0 0.07 1.27 0.36 97 1009.1
20260506090007 45 53 0.0 5.0 0.07 1.26 0.34 97 1008.9
20260506084506 46 84 3.0 6.0 0.09 1.25 0.33 97 1008.7
20260506083004 46 54 2.0 5.0 0.10 1.23 0.31 97 1008.5
20260506081505 46 54 2.0 5.0 0.09 1.21 0.28 97 1008.6
20260506080107 46 53 1.0 6.0 0.09 1.19 0.27 97 1008.4
20260506073057 47 26 1.0 4.0 0.07 1.12 0.21 97 1008.7
20260506071559 47 53 0.0 0.0 0.07 1.12 0.20 97 1008.8
20260506061553 47 63 1.0 3.0 0.06 1.18 0.13 97 1008.7
20260506044547 48 113 0.0 2.0 0.03 1.09 0.03 97 1009.4
20260506043041 48 113 0.0 6.0 0.01 1.07 0.01 97 1009.1
20260506041542 48 63 1.0 3.0 0.01 1.06 0.00 97 1009.0
20260506040037 48 349 0.0 2.0 0.01 1.06 0.00 97 1009.1
20260506034539 47 348 0.0 1.0 0.03 1.06 1.06 97 1009.3
20260506033037 47 348 0.0 0.0 0.05 1.06 1.06 97 1009.2
20260506031538 47 348 0.0 0.0 0.06 1.05 1.05 96 1009.4
20260506030054 48 347 0.0 2.0 0.06 1.04 1.04 96 1009.2
20260506024542 48 237 0.0 0.0 0.06 1.03 1.03 97 1009.8
20260506023033 48 237 0.0 0.0 0.05 1.01 1.01 96 1009.7
20260506021532 48 238 0.0 0.0 0.03 0.99 0.99 96 1009.7
20260506020033 48 237 0.0 0.0 0.03 0.98 0.98 96 1009.5
20260506014534 48 237 0.0 0.0 0.03 0.97 0.97 96 1009.8
20260506013031 48 237 0.0 0.0 0.05 0.96 0.96 96 1009.7
20260506011536 48 237 0.0 0.0 0.10 0.96 0.96 96 1009.5
20260506010028 48 237 0.0 0.0 0.12 0.95 0.95 96 1009.4
20260506004543 48 237 0.0 3.0 0.15 0.94 0.94 95 1009.7
20260506003032 48 304 0.0 0.0 0.15 0.91 0.91 95 1009.6
20260506001526 48 304 0.0 1.0 0.12 0.86 0.86 95 1009.4
20260506000026 48 304 0.0 2.0 0.11 0.83 0.83 95 1009.2
20260505234524 48 304 0.0 1.0 0.11 0.79 0.79 95 1008.8
20260505233024 48 304 0.0 3.0 0.10 0.76 0.76 95 1008.7
20260505231526 49 304 0.0 0.0 0.11 0.74 0.74 94 1008.6
20260505230026 49 304 0.0 1.0 0.13 0.71 0.71 94 1008.8
20260505224519 49 304 0.0 3.0 0.15 0.68 0.68 94 1009.0
20260505223018 49 292 0.0 1.0 0.19 0.66 0.66 93 1009.1
20260505221520 49 292 0.0 3.0 0.20 0.62 0.62 93 1009.3
20260505220016 49 330 0.0 3.0 0.24 0.57 0.57 92 1008.8
20260505214514 50 338 0.0 4.0 0.33 0.53 0.53 92 1008.9
20260505213011 50 316 0.0 3.0 0.32 0.47 0.47 91 1008.6
20260505211509 51 325 2.0 11.0 0.27 0.42 0.42 89 1008.4
20260505210004 53 306 1.0 11.0 0.19 0.34 0.34 89 1008.0
20260505204502 55 316 1.0 5.0 0.05 0.20 0.20 88 1007.6
20260505203059 56 200 2.0 8.0 0.00 0.15 0.15 85 1006.6
20260505201558 58 213 3.0 10.0 0.00 0.15 0.15 81 1006.6
20260505200057 62 232 6.0 17.0 0.00 0.15 0.15 70 1006.4
20260505194559 63 252 6.0 20.0 0.00 0.15 0.15 69 1005.9
20260505193119 64 278 3.0 16.0 0.00 0.15 0.15 71 1005.9
20260505191559 64 232 5.0 16.0 0.00 0.15 0.15 69 1005.8
20260505190053 66 239 9.0 24.0 0.00 0.15 0.15 68 1005.9
20260505184555 66 242 6.0 21.0 0.00 0.15 0.15 67 1005.5
20260505183052 67 271 7.0 21.0 0.00 0.15 0.15 66 1005.4
20260505181549 67 236 9.0 23.0 0.00 0.15 0.15 64 1005.2
20260505180048 67 252 9.0 17.0 0.00 0.15 0.15 65 1005.2
20260505174547 66 277 8.0 24.0 0.00 0.15 0.15 67 1005.0
20260505173046 67 240 9.0 23.0 0.00 0.15 0.15 68 1004.9
20260505171549 67 231 4.0 28.0 0.00 0.15 0.15 69 1004.9
20260505170042 66 257 10.0 25.0 0.00 0.15 0.15 68 1004.8
20260505164544 66 271 12.0 28.0 0.00 0.15 0.15 68 1004.7
20260505163042 65 244 9.0 26.0 0.00 0.15 0.15 69 1004.5
20260505161538 65 244 11.0 22.0 0.00 0.15 0.15 68 1004.2